TimeCDT,TemperatureF,Dew PointF,Humidity,Sea Level PressureIn,VisibilityMPH,Wind Direction,Wind SpeedMPH,Gust SpeedMPH,PrecipitationIn,Events,Conditions,WindDirDegrees,DateUTC
12:54 AM,73.0,66.0,79,29.82,4.0,SE,6.9,-,N/A,,Haze,140,2013-07-07 05:54:00
1:54 AM,73.0,64.9,76,29.81,5.0,SSE,5.8,-,N/A,,Haze,150,2013-07-07 06:54:00
2:54 AM,77.0,62.1,60,29.80,7.0,South,9.2,-,N/A,,Overcast,170,2013-07-07 07:54:00
3:54 AM,73.9,62.1,66,29.80,7.0,SSE,9.2,-,N/A,,Clear,160,2013-07-07 08:54:00
4:54 AM,73.9,61.0,64,29.79,7.0,SSE,11.5,-,N/A,,Clear,160,2013-07-07 09:54:00
5:54 AM,72.0,61.0,68,29.80,7.0,South,8.1,-,N/A,,Clear,170,2013-07-07 10:54:00
6:54 AM,73.9,62.1,66,29.80,5.0,South,8.1,-,N/A,,Haze,170,2013-07-07 11:54:00
7:54 AM,77.0,64.0,64,29.81,5.0,South,8.1,-,N/A,,Haze,180,2013-07-07 12:54:00
8:54 AM,80.1,66.0,62,29.81,5.0,SSW,12.7,-,N/A,,Haze,200,2013-07-07 13:54:00
9:54 AM,82.0,66.9,60,29.81,5.0,SSW,11.5,18.4,N/A,,Haze,200,2013-07-07 14:54:00
10:54 AM,84.9,68.0,57,29.81,5.0,SW,10.4,-,N/A,,Haze,220,2013-07-07 15:54:00
11:54 AM,87.1,69.1,55,29.81,5.0,SW,10.4,16.1,N/A,,Haze,220,2013-07-07 16:54:00
12:54 PM,87.1,68.0,53,29.80,5.0,South,4.6,-,N/A,,Haze,190,2013-07-07 17:54:00
1:54 PM,89.1,70.0,53,29.81,5.0,SSW,8.1,-,N/A,,Haze,200,2013-07-07 18:54:00
2:54 PM,89.1,70.0,53,29.81,5.0,SW,6.9,-,N/A,,Haze,220,2013-07-07 19:54:00
3:54 PM,91.0,70.0,50,29.81,5.0,Calm,Calm,-,N/A,,Haze,0,2013-07-07 20:54:00
4:54 PM,91.9,71.1,50,29.80,5.0,SSE,9.2,-,N/A,,Haze,160,2013-07-07 21:54:00
5:54 PM,91.0,70.0,50,29.79,6.0,SSW,8.1,-,N/A,,Haze,200,2013-07-07 22:54:00
6:54 PM,91.0,70.0,50,29.78,6.0,South,6.9,-,N/A,,Haze,190,2013-07-07 23:54:00
7:54 PM,89.1,72.0,57,29.79,6.0,Calm,Calm,-,N/A,,Haze,0,2013-07-08 00:54:00
8:54 PM,84.0,73.9,72,29.82,5.0,Calm,Calm,-,N/A,,Haze,0,2013-07-08 01:54:00
9:54 PM,82.0,73.0,74,29.85,5.0,NNW,9.2,-,N/A,,Haze,340,2013-07-08 02:54:00
10:54 PM,80.1,73.0,79,29.87,5.0,North,5.8,-,N/A,,Haze,350,2013-07-08 03:54:00
11:54 PM,79.0,69.1,72,29.87,7.0,North,3.5,-,N/A,,Partly Cloudy,10,2013-07-08 04:54:00